Flag Weather past 2 weeks in Hildesheim, Lower Saxony, Germany

Now
32 °F

Ice fog.


Feels Like: 21 °F
Forecast: 29 / 37 °F
Wind: 16 mph from East

Location: Braunschweig

Current Time: Nov 29, 2014 at 11:16:29 AM

Latest Report: Nov 29, 2014 at 10:50 AM


Visibility: 3 mi

Pressure: 30.12 "Hg

Humidity: 100%

Dew point: 32 °F

Location of HildesheimLocation

Historic Weather in Hildesheim — Graph

°F

Hildesheim temperature yesterday

Maximum temperature yesterday: 37 °F (at 7:50 AM)
Minimum temperature yesterday: 34 °F (at 10:50 AM)
Average temperature yesterday: 36 °F

Past Weeks' High & Low Weather Summary

 TemperatureHumidityPressure
High54 °F (Nov 14, 12:50 PM)100% (Nov 14, 10:20 AM)30.36 "Hg (Nov 14, 10:20 AM)
Low32 °F (Nov 27, 4:50 AM)72% (Nov 17, 3:20 PM)29.50 "Hg (Nov 16, 1:20 PM)
Average43 °F94%30.04 "Hg
* Reported Nov 14 10:20 AM — Nov 29 10:20 AM, Hildesheim, Weather by CustomWeather, © 2014

Note: Actual official high and low records may vary slightly from our data, if they occured in-between our weather recording intervals... More about our weather records

Advertising

Hildesheim weather history for previous 24 hours

 ConditionsComfort  
Time TempWeatherWind HumidityBarometerVisibility
10:20 AM
Nov 29
32 °FIce fog.15 mph93%30.12 "Hg3 mi
9:50 AM32 °FIce fog.15 mph93%30.12 "Hg3 mi
9:20 AM32 °FIce fog.15 mph93%30.12 "Hg3 mi
8:50 AM32 °FIce fog.16 mph93%30.09 "Hg3 mi
8:20 AM32 °FIce fog.15 mph93%30.09 "Hg3 mi
7:50 AM32 °FLow clouds.13 mph93%30.09 "Hg3 mi
7:20 AM32 °FLow clouds.15 mph93%30.09 "Hg4 mi
6:50 AM32 °FLow clouds.16 mph93%30.09 "Hg4 mi
9:50 PM
Nov 28
36 °FOvercast.16 mph87%30.07 "Hg4 mi
9:20 PM36 °FOvercast.15 mph87%30.07 "Hg4 mi
8:50 PM36 °FOvercast.14 mph87%30.07 "Hg4 mi
8:20 PM36 °FOvercast.13 mph87%30.07 "Hg4 mi
7:50 PM36 °FOvercast.15 mph87%30.07 "Hg4 mi
7:20 PM36 °FOvercast.14 mph87%30.07 "Hg4 mi
6:50 PM36 °FOvercast.15 mph87%30.07 "Hg4 mi
6:20 PM36 °FOvercast.16 mph87%30.07 "Hg5 mi
5:50 PM36 °FOvercast.17 mph87%30.04 "Hg6 mi
5:20 PM36 °FOvercast.15 mph87%30.04 "Hg6 mi
4:50 PM36 °FOvercast.16 mph81%30.04 "Hg5 mi
4:20 PM36 °FOvercast.16 mph81%30.04 "Hg5 mi
3:50 PM36 °FOvercast.14 mph87%30.04 "HgN/A
3:20 PM36 °FOvercast.14 mph87%30.01 "HgN/A
2:50 PM36 °FOvercast.15 mph81%30.01 "HgN/A
2:20 PM36 °FOvercast.16 mph81%30.01 "HgN/A
1:50 PM36 °FPartly sunny.15 mph87%30.01 "Hg5 mi
12:50 PM36 °FPartly sunny.15 mph81%30.04 "Hg6 mi
12:20 PM36 °FPartly sunny.15 mph87%30.04 "Hg5 mi
11:50 AM36 °FPartly sunny.16 mph81%30.04 "Hg5 mi
11:20 AM34 °FPartly sunny.15 mph87%30.04 "Hg5 mi
Weather by CustomWeather, © 2014

See weather overviewHow to use our weather pages